Flight Information

DEPARTURE
REDDING, CA
Elevation:
504
Runways:
16/34 - 7003x150 - ASPH-G
12/30 - 5067x150 - ASPH-G
ATIS:
124.1
Ground:
121.7
Tower:
REDDING TOWER 119.8
DESTINATION
,
Elevation:
TPA:
1000 (est.)


6837.7 NM68° True-17° Var51° HDG

Flight Plan:
(click to file on line)

1. Type
2. Aircraft Identification
3. Aircraft Type / Special Equipment
4. True Airspeed
kts
5. Departure Airport
(ICAO code)
6. Arriving Airport
(ICAO code)
7. Cruising Altitude
ft
8. Alternate Airport
(ICAO code)
9. Route of Flight
10. Remarks


00:00:00 Departure ATIS: Destination ATIS:

Clearance Limit:
Route:
Altitude: Expect in minutes
Frequency:
Transponder: (7500 Hijack / 7600 Lost Comms / 7700 Emergency)


KRDD 261353Z 00000KT 10SM CLR 21/09 A2996 RMK AO2 SLP138 T02110089
Time: 2022-06-26T13:53:00Z
1656253939
Winds: calm
Visibility: 10.0 sm
Clouds (AGL): CLR
Temperature: 21.1 C
Dew Point: 8.9 C
Pressure: 29.958662 in Hgbr


Notes:

Data extracted from FAA Digital Chart Supplement. Effective: 0901Z Thursday, 27 JAN 2022 to 0900z Thursday, 24 MAR 2022
Current ATIS data is provided courtisy of PilotEdge.